User: anonymous   Login
Location: Possagno
(45.8500°N, 11.8667°E)
Time: 13:57:12
(UTC+00:00)
Language:

STARLINK-32 - Orbit

View from above orbital plane
View from above orbital plane
View from above satellite
View from above satellite

Ground track
Ground track

The orbit data is extracted from the following two-line orbital elements,

1 44254U 19029V   20219.25001157  .01213759  00000-0  53673-2 0  9999
2 44254  52.9986 327.1852 0000962  76.0353  87.2156 15.81206620 66821
Epoch (UTC): 06 August 2020 06:00:01
Eccentricity: 0.0000962
inclination: 52.9986°
perigee height: 326 km
apogee height: 327 km
right ascension of ascending node: 327.1852°
argument of perigee: 76.0353°
revolutions per day: 15.81206620
mean anomaly at epoch: 87.2156°
orbit number at epoch: 6682

The dashed part of the orbit path shows where the satellite is in the earth's shadow,  

DLR